Regional Weather Roundup
Issued by NWS

Home | Current Version | Previous Version | Graphics & Text | Print | Product List | Glossary On
Versions: 1 2 3 4 5 6 7 8 9 10 11 12 13 14 15 16 17 18 19 20 21 22 23 24 25 26 27 28
000
ASUS45 KCYS 250710
RWRWY

WYOMING REGIONAL WEATHER ROUNDUP
NATIONAL WEATHER SERVICE CHEYENNE WY
100 AM MDT SAT OCT 25 2014

NOTE:  "FAIR" INDICATES FEW OR NO CLOUDS BELOW 12,000 FEET
WITH NO SIGNIFICANT WEATHER AND/OR OBSTRUCTIONS TO VISIBILITY.

WYZ001-250800-
YELLOWSTONE NATIONAL PARK

CITY           SKY/WX    TMP DP  RH WIND       PRES   REMARKS
LK YELLOWSTONE   N/A     28  24  85 NW3       30.28
W YELLOWSTONE  NOT AVBL

$$
WYZ002>013-054>058-071-098>099-250800-
NORTHERN WYOMING

CITY           SKY/WX    TMP DP  RH WIND       PRES   REMARKS
JACKSON        CLEAR     32  27  80 N6        30.23S WCI  26
CODY           CLEAR     37  32  81 CALM      30.11
GREYBULL       CLEAR     41  32  70 SE5       30.09S
WORLAND        CLEAR     42  33  70 VRB3      30.11S
SHERIDAN       CLEAR     36  29  75 CALM      30.13F
BUFFALO        CLEAR     39  30  70 CALM      30.17R
GILLETTE       CLEAR     32  28  85 SW5       30.15R WCI  27
HULETT         FAIR      45  30  57 E8        30.16S
NEWCASTLE      FAIR      41  32  70 N6        30.15

$$
WYZ014>020-022>026-101>103-250800-
CENTRAL WYOMING

CITY           SKY/WX    TMP DP  RH WIND       PRES   REMARKS
BIG PINEY      PTCLDY    28  18  66 N6        30.29S WCI  22
PINEDALE       MOSUNNY   28  23  80 NW5       30.31  WCI  23
DUBOIS         FAIR      37  19  48 NW15      30.24S WCI  28
LANDER         CLEAR     50  20  30 NW7       30.15R
RIVERTON       CLEAR     50  19  29 NW10      30.17R
CASPER         CLEAR     41  29  62 NW12      30.17F
DOUGLAS        CLEAR     41  21  44 N5        30.16S

$$
WYZ021-027>030-104>119-250800-
SOUTHERN WYOMING

CITY           SKY/WX    TMP DP  RH WIND       PRES   REMARKS
EVANSTON       PTCLDY    51  20  29 S7        30.27F
KEMMERER       SUNNY     34  27  75 N8        30.29S WCI  27
FORT BRIDGER   FAIR      49  18  29 SW5       30.30S
ROCK SPRINGS   PTCLDY    46  27  47 S5        30.28S
DIXON          FAIR      38  30  73 SE6       30.33S WCI  34
RAWLINS        CLEAR     51  26  37 SW8       30.28S
SARATOGA       FAIR      39  27  60 SE7       30.32R WCI  34
LARAMIE        CLEAR     46  22  38 W7        30.32R
CHEYENNE       CLEAR     52  25  35 W12       30.24S
TORRINGTON     CLEAR     49  28  44 NE3       30.13R
PINE BLUFFS    FAIR      37  32  81 W3        30.21S

$$



USA.gov is the U.S. government's official web portal to all federal, state and local government web resources and services.